When you browse on this site, cookies collect data to enhance your experience and personalize the content and advertising you see.
Visit our Privacy Policy to learn more. By continuing to use the site, you agree to this use of cookies and data.

Stündliche Wetter Cayo Coco

Heute, 4 Juli, Samstag

Zeit Temperatur Niederschläge Wind Luftdruck Luftfeuchtigkeit
00:00 +28°C° 0.2 mm 3 m/S 760 mmHg 86%
01:00 +28°C° 0.2 mm 3 m/S 760 mmHg 88%
02:00 +28°C° 0.8 mm 3 m/S 760 mmHg 89%
03:00 +27°C° 0.8 mm 2 m/S 759 mmHg 90%
04:00 +27°C° 0.8 mm 2 m/S 759 mmHg 91%
05:00 +27°C° 0.8 mm 2 m/S 759 mmHg 90%
06:00 +28°C° 0.8 mm 2 m/S 760 mmHg 88%
07:00 +28°C° 0.8 mm 2 m/S 760 mmHg 87%
08:00 +29°C° 0.1 mm 2 m/S 760 mmHg 81%
09:00 +31°C° 0.1 mm 2 m/S 760 mmHg 74%
10:00 +32°C° 0.1 mm 1 m/S 761 mmHg 68%
11:00 +33°C° 0 mm 1 m/S 760 mmHg 64%
12:00 +34°C° 0 mm 1 m/S 760 mmHg 60%
13:00 +35°C° 0 mm 1 m/S 760 mmHg 57%
14:00 +35°C° 0 mm 2 m/S 760 mmHg 58%
15:00 +35°C° 0 mm 2 m/S 759 mmHg 60%
16:00 +34°C° 0 mm 2 m/S 759 mmHg 62%
17:00 +33°C° 0 mm 3 m/S 759 mmHg 66%
18:00 +31°C° 0 mm 3 m/S 759 mmHg 70%
19:00 +30°C° 0 mm 3 m/S 759 mmHg 74%
20:00 +30°C° 0.2 mm 3 m/S 760 mmHg 76%
21:00 +30°C° 0.2 mm 3 m/S 760 mmHg 78%
22:00 +30°C° 0.2 mm 3 m/S 760 mmHg 80%
23:00 +29°C° 0.5 mm 3 m/S 760 mmHg 81%

Morgen, 5 Juli, Sonntag

Zeit Temperatur Niederschläge Wind Luftdruck Luftfeuchtigkeit
00:00 +29°C° 0.5 mm 3 m/S 760 mmHg 81%
01:00 +29°C° 0.5 mm 2 m/S 760 mmHg 82%
02:00 +28°C° 0.5 mm 2 m/S 760 mmHg 83%
03:00 +28°C° 0.5 mm 2 m/S 759 mmHg 85%
04:00 +28°C° 0.5 mm 2 m/S 759 mmHg 86%
05:00 +28°C° 0.2 mm 2 m/S 760 mmHg 85%
06:00 +28°C° 0.2 mm 2 m/S 760 mmHg 83%
07:00 +29°C° 0.2 mm 2 m/S 760 mmHg 82%
08:00 +31°C° 0.1 mm 2 m/S 761 mmHg 74%
09:00 +32°C° 0.1 mm 1 m/S 761 mmHg 66%
10:00 +34°C° 0.1 mm 1 m/S 761 mmHg 59%
11:00 +34°C° 0.1 mm 1 m/S 761 mmHg 57%
12:00 +34°C° 0.1 mm 1 m/S 761 mmHg 56%
13:00 +35°C° 0.1 mm 2 m/S 761 mmHg 55%
14:00 +35°C° 0 mm 2 m/S 761 mmHg 57%
15:00 +34°C° 0 mm 3 m/S 760 mmHg 59%
16:00 +34°C° 0 mm 4 m/S 760 mmHg 62%
17:00 +33°C° 0 mm 4 m/S 760 mmHg 66%
18:00 +32°C° 0 mm 4 m/S 760 mmHg 71%
19:00 +32°C° 0 mm 4 m/S 760 mmHg 75%
20:00 +30°C° 0 mm 4 m/S 761 mmHg 76%
21:00 +30°C° 0 mm 4 m/S 761 mmHg 77%
22:00 +30°C° 0 mm 4 m/S 761 mmHg 78%
23:00 +30°C° 0.1 mm 4 m/S 761 mmHg 79%

übermorgen, 6 Juli, Montag

Zeit Temperatur Niederschläge Wind Luftdruck Luftfeuchtigkeit
00:00 +30°C° 0.1 mm 4 m/S 761 mmHg 80%
01:00 +30°C° 0.1 mm 4 m/S 760 mmHg 80%
02:00 +29°C° 0.2 mm 5 m/S 760 mmHg 81%
03:00 +29°C° 0.2 mm 5 m/S 760 mmHg 83%
04:00 +29°C° 0.2 mm 5 m/S 760 mmHg 84%
05:00 +29°C° 0 mm 5 m/S 761 mmHg 82%
06:00 +30°C° 0 mm 5 m/S 761 mmHg 80%
07:00 +30°C° 0 mm 5 m/S 761 mmHg 78%
08:00 +32°C° 0 mm 4 m/S 762 mmHg 74%
09:00 +33°C° 0 mm 4 m/S 762 mmHg 69%
10:00 +34°C° 0 mm 4 m/S 762 mmHg 65%
11:00 +34°C° 0.1 mm 4 m/S 762 mmHg 63%
12:00 +35°C° 0.1 mm 5 m/S 762 mmHg 60%
13:00 +36°C° 0.1 mm 5 m/S 762 mmHg 58%
14:00 +35°C° 0 mm 5 m/S 761 mmHg 59%
15:00 +35°C° 0 mm 6 m/S 761 mmHg 59%
16:00 +35°C° 0 mm 6 m/S 760 mmHg 60%
17:00 +34°C° 0 mm 6 m/S 761 mmHg 65%
18:00 +33°C° 0 mm 6 m/S 761 mmHg 70%
19:00 +30°C° 0 mm 6 m/S 761 mmHg 75%
20:00 +30°C° 0 mm 6 m/S 761 mmHg 77%
21:00 +30°C° 0 mm 6 m/S 762 mmHg 80%
22:00 +29°C° 0 mm 6 m/S 762 mmHg 83%
23:00 +29°C° 0.2 mm 6 m/S 762 mmHg 83%

7 Juli, Dienstag

Zeit Temperatur Niederschläge Wind Luftdruck Luftfeuchtigkeit
00:00 +29°C° 0.2 mm 6 m/S 761 mmHg 84%
01:00 +29°C° 0.2 mm 6 m/S 761 mmHg 84%
02:00 +29°C° 0.1 mm 6 m/S 761 mmHg 85%
03:00 +29°C° 0.1 mm 5 m/S 761 mmHg 86%
04:00 +29°C° 0.1 mm 5 m/S 761 mmHg 87%
05:00 +29°C° 0.1 mm 5 m/S 761 mmHg 84%
06:00 +30°C° 0.1 mm 6 m/S 761 mmHg 81%
07:00 +30°C° 0.1 mm 6 m/S 762 mmHg 79%
08:00 +32°C° 0.1 mm 6 m/S 762 mmHg 76%
09:00 +32°C° 0.1 mm 6 m/S 762 mmHg 74%
10:00 +33°C° 0.1 mm 6 m/S 762 mmHg 72%
11:00 +34°C° 0 mm 6 m/S 762 mmHg 67%
12:00 +35°C° 0 mm 6 m/S 762 mmHg 62%
13:00 +35°C° 0 mm 6 m/S 761 mmHg 57%
14:00 +35°C° 0 mm 6 m/S 761 mmHg 58%
15:00 +35°C° 0 mm 6 m/S 761 mmHg 58%
16:00 +34°C° 0 mm 6 m/S 760 mmHg 59%
17:00 +33°C° 0.1 mm 6 m/S 760 mmHg 65%
18:00 +32°C° 0.1 mm 6 m/S 760 mmHg 72%
19:00 +30°C° 0.1 mm 6 m/S 761 mmHg 78%
20:00 +30°C° 0.6 mm 6 m/S 761 mmHg 79%
21:00 +30°C° 0.6 mm 6 m/S 761 mmHg 79%
22:00 +30°C° 0.6 mm 7 m/S 762 mmHg 80%
23:00 +29°C° 0 mm 7 m/S 761 mmHg 81%

8 Juli, Mittwoch

Zeit Temperatur Niederschläge Wind Luftdruck Luftfeuchtigkeit
00:00 +29°C° 0 mm 6 m/S 761 mmHg 82%
01:00 +29°C° 0 mm 6 m/S 761 mmHg 83%
02:00 +29°C° 0 mm 6 m/S 761 mmHg 83%
03:00 +28°C° 0 mm 6 m/S 761 mmHg 84%
04:00 +28°C° 0 mm 5 m/S 760 mmHg 84%
05:00 +29°C° 0.1 mm 6 m/S 761 mmHg 83%
06:00 +29°C° 0.1 mm 6 m/S 761 mmHg 82%
07:00 +30°C° 0.1 mm 6 m/S 761 mmHg 81%
08:00 +32°C° 0 mm 6 m/S 761 mmHg 74%
09:00 +33°C° 0 mm 6 m/S 761 mmHg 68%
10:00 +34°C° 0 mm 5 m/S 761 mmHg 61%
11:00 +34°C° 0 mm 5 m/S 761 mmHg 61%
12:00 +35°C° 0 mm 5 m/S 761 mmHg 60%
13:00 +35°C° 0 mm 5 m/S 761 mmHg 59%
14:00 +34°C° 0.1 mm 5 m/S 760 mmHg 63%
15:00 +34°C° 0.1 mm 5 m/S 760 mmHg 68%
16:00 +33°C° 0.1 mm 6 m/S 759 mmHg 72%
17:00 +32°C° 0.4 mm 6 m/S 760 mmHg 76%
18:00 +30°C° 0.4 mm 6 m/S 760 mmHg 80%
19:00 +29°C° 0.4 mm 6 m/S 760 mmHg 85%
20:00 +29°C° 0.1 mm 6 m/S 760 mmHg 86%
21:00 +29°C° 0.1 mm 6 m/S 761 mmHg 86%
22:00 +29°C° 0.1 mm 6 m/S 761 mmHg 87%
23:00 +29°C° 0.3 mm 5 m/S 761 mmHg 88%

9 Juli, Donnerstag

Zeit Temperatur Niederschläge Wind Luftdruck Luftfeuchtigkeit
00:00 +29°C° 0.3 mm 5 m/S 760 mmHg 88%
01:00 +28°C° 0.3 mm 5 m/S 760 mmHg 88%
02:00 +28°C° 0.4 mm 5 m/S 760 mmHg 89%
03:00 +28°C° 0.4 mm 5 m/S 760 mmHg 89%
04:00 +28°C° 0.4 mm 5 m/S 760 mmHg 90%
05:00 +29°C° 0 mm 5 m/S 760 mmHg 89%
06:00 +29°C° 0 mm 5 m/S 760 mmHg 88%
07:00 +29°C° 0 mm 6 m/S 760 mmHg 87%
08:00 +30°C° 0 mm 6 m/S 760 mmHg 81%
09:00 +33°C° 0 mm 6 m/S 760 mmHg 75%
10:00 +34°C° 0 mm 6 m/S 760 mmHg 69%
11:00 +34°C° 0.4 mm 6 m/S 760 mmHg 67%
12:00 +35°C° 0.4 mm 6 m/S 760 mmHg 65%
13:00 +35°C° 0.4 mm 6 m/S 760 mmHg 64%
14:00 +34°C° 0.8 mm 6 m/S 759 mmHg 68%
15:00 +34°C° 0.8 mm 7 m/S 759 mmHg 72%
16:00 +33°C° 0.8 mm 7 m/S 759 mmHg 76%
17:00 +32°C° 1 mm 7 m/S 759 mmHg 78%
18:00 +30°C° 1 mm 6 m/S 759 mmHg 81%
19:00 +30°C° 1 mm 6 m/S 760 mmHg 83%
20:00 +29°C° 1 mm 6 m/S 760 mmHg 83%
21:00 +29°C° 1 mm 5 m/S 760 mmHg 84%
22:00 +28°C° 1 mm 5 m/S 761 mmHg 84%
23:00 +28°C° 1.1 mm 5 m/S 761 mmHg 84%
Mehr zeigen